Wind_Speed
38 39 40 40 41 42 38 34 30 29 31 33 35 35 34 34 34 33 31 29 29 29 29 29 28 27 27 25 24 22 21 19 18 16 15 14 13 12 11 10 9 8 8 9 9 9 10 10 11
41 42 43 44 45 43 38 34 32 32 35 36 37 36 36 36 35 34 33 30 30 30 30 30 29 29 28 27 26 24 23 21 20 18 17 16 15 14 13 11 10 10 10 10 10 11 11 11 11
44 45 46 47 47 44 38 35 35 37 39 39 39 38 38 36 36 35 34 33 31 31 31 31 30 30 29 29 28 26 25 23 22 20 19 17 16 15 14 13 12 12 12 12 11 12 12 12 12
46 48 50 51 49 43 39 38 39 41 42 42 42 41 40 38 37 36 36 35 34 33 33 32 31 31 31 30 29 28 27 25 23 22 20 19 18 17 16 15 14 13 13 13 12 12 12 13 13
49 51 53 53 49 44 41 40 42 44 45 45 45 44 42 40 39 38 38 37 36 35 34 34 33 32 32 31 30 29 28 27 25 23 22 21 19 18 17 16 15 14 14 14 13 13 13 14 14
52 54 55 54 49 46 44 43 44 45 46 47 47 46 44 42 41 40 40 39 38 37 36 35 34 34 33 33 32 31 30 28 26 25 24 22 21 19 18 17 16 16 15 14 14 14 14 14 14
54 56 57 54 50 47 45 45 46 47 47 48 49 49 47 45 44 42 41 40 39 38 37 36 35 35 34 34 33 33 31 30 28 27 25 24 22 21 20 18 18 17 16 15 15 15 15 15 15
55 57 58 55 51 48 46 48 48 50 49 50 51 51 49 48 46 45 43 42 41 40 39 38 36 36 36 35 35 34 33 31 30 28 27 25 24 22 21 20 19 18 17 16 16 16 16 16 16
55 58 58 54 51 49 48 50 51 52 53 52 53 53 52 50 49 47 45 44 42 41 40 39 38 37 37 36 35 35 34 33 31 30 28 26 25 23 22 21 20 19 18 17 17 17 17 17 17
55 58 55 52 52 51 51 52 52 53 54 54 53 53 54 52 50 49 47 45 44 42 41 40 39 38 38 37 36 35 35 34 32 31 30 28 26 25 23 22 21 20 19 18 18 18 18 18 17
55 56 53 53 53 53 52 53 53 54 54 54 54 54 55 54 52 51 49 47 45 44 42 41 40 39 39 38 37 36 36 35 33 32 31 30 28 26 25 23 22 21 20 19 19 19 18 18 18
54 53 52 52 52 54 54 54 55 55 54 55 56 56 56 55 54 52 51 49 47 46 44 42 41 40 39 38 38 37 37 36 35 33 32 31 30 28 26 24 23 22 21 20 19 19 19 19 19
52 52 51 51 51 53 54 55 56 55 54 56 57 57 57 56 55 54 53 51 49 47 46 44 42 41 40 39 39 38 37 37 36 34 33 32 31 29 27 25 24 23 22 21 20 20 19 19 20
49 50 50 50 50 51 54 54 55 53 54 57 57 58 57 57 56 56 54 52 50 48 47 45 43 41 40 40 39 39 38 37 36 35 34 33 32 30 28 26 25 24 23 22 21 20 20 20 20
46 47 47 47 48 49 53 55 52 50 55 56 57 58 58 58 57 56 55 53 50 49 48 47 45 43 42 41 40 40 39 38 37 36 34 33 32 31 29 27 26 24 23 22 22 21 21 21 21
42 44 44 43 46 48 52 54 49 50 54 56 57 58 58 58 57 56 56 54 52 50 49 47 47 45 43 42 41 40 40 39 37 36 35 34 33 31 29 28 26 25 24 23 22 22 22 22 22
40 41 41 41 44 48 51 51 48 50 52 55 56 58 59 59 58 57 56 55 53 51 50 49 47 46 45 44 43 42 41 39 38 36 35 34 34 32 30 29 28 26 25 24 23 23 23 23 23
39 41 40 39 41 46 49 50 47 49 51 53 55 57 58 59 58 57 56 56 55 53 51 50 49 48 47 46 44 43 42 40 39 37 36 35 34 32 31 30 29 27 26 25 24 24 24 24 24
38 40 40 38 40 43 45 48 47 48 50 51 54 56 58 58 59 59 58 57 56 55 53 51 50 49 48 47 45 43 42 41 40 38 37 36 34 33 32 31 29 28 27 26 26 25 25 25 25
38 39 38 37 39 42 43 45 45 46 48 49 51 54 57 58 59 60 59 58 57 56 54 52 51 51 49 47 46 45 44 43 41 40 39 37 36 34 33 31 30 29 28 27 27 26 26 26 26
37 38 37 38 39 40 42 44 44 45 47 49 51 52 55 58 59 60 61 59 58 57 55 54 52 51 50 48 47 46 45 44 42 40 39 38 37 36 34 32 31 30 29 28 27 27 27 27 27
35 35 37 38 39 38 39 43 43 43 46 49 51 52 53 56 58 60 61 60 58 57 56 55 54 53 51 49 47 46 45 43 42 41 40 39 38 37 35 33 32 32 31 30 29 28 28 28 28
35 34 36 37 38 39 37 42 42 42 43 46 49 51 53 56 58 60 61 61 59 58 57 57 56 54 52 51 48 47 46 44 43 42 41 40 39 37 36 34 33 33 32 30 30 29 29 29 29
33 34 35 36 38 40 37 41 41 40 40 42 46 49 52 55 57 59 61 62 61 60 59 58 57 56 54 52 50 48 46 45 43 42 41 40 39 37 36 35 34 33 32 31 30 30 30 30 29
32 33 34 35 37 38 35 39 38 35 38 40 42 47 51 54 55 58 60 62 62 61 60 59 57 57 56 54 52 50 47 46 44 42 41 40 39 37 36 36 34 34 33 32 32 31 30 30 30
30 31 33 35 36 36 35 37 36 34 35 39 40 45 49 53 55 57 59 60 62 62 61 60 58 58 57 55 53 50 48 47 46 44 42 41 40 38 38 37 36 35 34 34 33 32 31 31 31
28 28 30 32 33 35 35 35 34 34 34 37 39 43 47 52 54 56 59 59 60 61 62 61 59 58 57 56 54 52 50 49 47 45 44 42 41 40 39 38 37 36 35 34 33 32 32 32 32
29 27 27 30 31 32 33 32 32 32 34 36 38 40 44 49 53 55 57 58 59 60 61 62 61 60 58 56 55 52 51 50 48 46 45 43 42 41 40 39 38 36 35 35 34 33 33 33 33
29 28 28 29 30 31 31 29 29 30 31 34 38 40 42 46 52 54 55 56 58 60 61 61 61 60 58 57 55 54 52 51 49 47 45 43 43 41 40 39 38 37 36 35 35 34 34 33 33
28 28 29 31 31 31 32 29 27 28 29 31 36 39 42 45 50 54 55 56 58 60 60 61 61 60 59 57 56 54 53 52 51 49 47 44 43 42 40 40 39 38 36 36 35 35 35 34 34
Wind_Direction
270 268 265 262 261 259 258 258 256 252 249 246 244 243 243 242 242 242 241 237 236 236 235 234 232 230 229 228 226 226 225 224 225 226 228 229 231 233 235 241 250 258 266 277 284 289 291 295 299
270 268 265 263 261 260 259 258 256 251 248 245 244 243 242 241 241 241 240 237 235 234 233 232 230 229 229 228 227 226 226 226 227 228 229 231 233 234 236 242 250 257 264 272 280 284 287 290 294
271 268 266 263 262 262 262 258 253 249 247 245 244 243 242 241 240 239 239 237 234 233 233 231 229 229 228 228 228 227 227 227 228 229 230 231 233 234 237 242 250 255 261 269 276 279 282 287 292
270 268 266 264 264 263 260 256 252 249 246 245 243 241 241 240 239 238 237 236 234 232 232 231 229 228 228 228 228 228 228 228 229 229 231 232 232 235 239 243 250 255 260 268 273 275 280 286 291
270 267 266 265 265 262 258 254 250 248 246 245 243 241 240 239 238 237 235 235 234 232 230 230 229 228 227 228 228 228 228 229 229 230 230 231 232 235 239 243 250 255 260 266 269 273 278 285 290
269 267 266 266 265 261 257 253 249 246 245 244 243 240 239 238 237 236 235 233 233 231 230 229 228 227 226 227 228 228 229 230 230 230 230 230 232 235 238 243 249 254 259 263 266 271 277 283 289
269 268 266 265 263 259 255 251 247 245 243 242 241 239 237 236 235 234 233 233 232 231 229 228 227 226 226 227 228 229 229 230 230 230 230 230 232 235 239 243 248 253 256 260 265 269 276 282 288
269 268 266 264 263 260 254 250 247 244 241 240 239 238 236 235 234 234 232 231 231 230 229 228 228 227 226 227 228 228 229 229 229 229 229 230 232 235 239 243 248 251 253 258 263 269 276 281 285
268 266 265 265 263 259 253 249 246 243 241 238 237 237 235 234 233 232 232 230 230 229 228 228 228 227 227 227 228 228 228 228 229 229 229 230 232 235 238 244 247 249 252 258 263 269 275 279 283
267 267 267 264 260 257 252 248 245 242 240 238 236 235 234 233 232 232 231 230 229 228 228 228 228 227 227 227 228 228 227 228 228 228 228 230 232 235 239 243 246 248 252 258 263 268 273 278 282
268 267 266 262 259 255 252 247 243 241 238 237 235 233 232 231 231 230 229 229 228 227 226 227 227 227 226 226 227 226 226 226 227 227 228 229 232 235 238 242 245 248 251 258 263 268 273 277 280
267 266 265 261 257 253 251 247 243 239 237 235 233 231 230 230 229 228 228 227 227 226 225 225 226 226 225 225 225 226 226 226 226 226 228 230 232 234 237 240 243 247 250 256 261 267 272 276 279
267 264 262 259 255 252 249 246 242 238 235 233 232 230 229 228 228 227 227 226 226 225 224 224 225 225 225 224 224 225 225 226 226 226 228 230 232 233 235 239 242 246 251 255 260 267 272 275 279
268 264 261 258 254 251 248 245 242 236 233 231 230 228 227 225 226 226 225 226 225 224 223 222 223 224 224 224 224 224 225 226 226 226 227 229 231 233 235 238 242 246 251 255 260 266 271 275 279
268 265 261 257 253 250 248 244 239 236 233 231 229 227 226 224 223 225 225 224 224 223 223 223 222 223 223 223 223 224 224 226 225 225 227 228 230 232 235 238 242 246 251 255 259 265 270 274 278
269 266 262 257 253 250 248 245 238 236 233 230 227 226 225 224 222 223 223 223 223 223 223 223 222 222 222 222 222 223 224 225 224 225 227 228 230 232 235 238 241 246 250 255 259 265 270 273 277
269 266 263 256 252 250 248 244 237 235 233 229 226 225 224 223 221 221 222 222 222 222 222 222 222 221 221 221 221 222 223 223 224 225 226 228 231 233 235 238 241 246 250 255 260 265 269 273 277
272 268 264 258 254 251 248 244 238 235 233 230 225 223 223 222 220 220 221 221 221 221 221 221 221 220 220 220 221 222 222 223 223 225 226 228 230 233 235 238 242 246 251 256 260 264 269 273 276
272 270 266 259 254 253 249 244 238 235 233 230 225 223 222 221 219 218 219 220 220 219 220 221 220 219 219 220 221 222 222 222 223 224 226 227 230 233 236 238 242 246 251 255 260 264 268 272 276
271 269 266 259 255 254 249 243 238 235 233 229 226 223 221 219 219 218 218 219 219 219 219 219 219 218 218 220 220 221 222 222 223 224 225 227 230 233 236 239 243 247 251 255 260 264 267 271 275
271 268 265 260 256 254 251 243 236 234 232 229 225 223 220 219 218 218 218 218 219 219 219 218 218 218 218 219 220 220 221 222 223 224 226 228 230 233 237 240 244 247 251 255 260 263 266 270 274
272 267 264 261 258 255 252 248 234 233 232 229 226 223 220 218 218 217 218 217 218 218 219 219 218 219 218 219 220 221 222 222 223 224 226 228 231 234 237 240 244 247 251 255 259 263 266 269 273
272 268 264 261 259 256 252 251 239 233 232 228 226 224 221 218 218 217 217 217 217 217 218 219 219 219 219 219 220 221 221 222 223 224 226 228 231 234 237 241 244 248 251 254 258 262 265 268 272
272 268 265 262 261 258 253 252 243 234 232 229 225 223 220 220 219 218 218 217 218 217 218 219 219 219 220 219 220 220 221 222 223 224 226 228 231 234 237 240 244 247 250 253 257 261 264 268 272
272 269 267 264 263 261 255 252 244 235 233 230 226 223 220 220 220 219 219 219 219 218 217 218 219 219 220 220 220 221 221 222 223 225 227 228 231 234 237 240 243 247 250 254 257 260 263 267 272
271 268 266 267 268 264 257 252 244 237 234 231 228 224 221 220 220 219 219 219 218 218 218 218 218 219 220 220 220 221 221 222 223 224 226 229 231 234 237 239 242 246 250 253 257 260 263 267 272
271 268 266 265 268 265 258 251 245 239 235 232 228 226 223 222 221 220 220 219 219 219 219 219 218 219 220 220 220 221 222 222 223 224 226 228 230 233 236 239 242 246 249 252 255 259 263 267 271
271 267 264 262 266 266 259 252 245 239 237 234 231 228 225 223 222 221 220 220 220 219 219 219 219 219 220 220 220 221 222 223 223 224 226 229 231 234 237 240 243 246 249 252 255 258 262 266 271
268 265 263 262 261 262 260 253 246 243 240 237 232 229 225 223 221 220 220 220 220 219 219 219 220 220 220 220 220 220 222 223 223 224 226 228 230 233 237 240 243 246 249 252 255 258 262 266 270
269 266 262 260 261 260 258 252 248 246 242 238 234 230 228 225 222 220 220 220 220 219 219 219 219 220 220 221 221 221 221 222 224 225 226 228 231 233 236 239 242 245 248 252 255 258 261 265 269
Height
5791 5791 5792 5793 5794 5795 5799 5804 5807 5808 5809 5809 5810 5812 5815 5818 5821 5826 5828 5830 5832 5834 5837 5839 5842 5845 5847 5849 5852 5854 5856 5858 5860 5862 5863 5864 5865 5867 5868 5869 5870 5871 5871 5872 5872 5872 5872 5871 5871
5782 5783 5783 5784 5784 5787 5792 5798 5800 5801 5801 5802 5804 5806 5808 5811 5815 5819 5821 5824 5826 5829 5832 5834 5837 5840 5843 5845 5848 5850 5853 5855 5857 5859 5860 5862 5863 5864 5866 5867 5868 5868 5869 5870 5870 5870 5870 5869 5869
5773 5773 5773 5773 5775 5780 5786 5791 5792 5792 5792 5794 5797 5799 5802 5806 5809 5812 5816 5818 5821 5824 5826 5829 5832 5835 5838 5841 5844 5846 5849 5851 5853 5855 5857 5859 5860 5862 5863 5864 5865 5866 5867 5868 5868 5868 5867 5867 5867
5763 5763 5762 5763 5766 5774 5778 5781 5781 5782 5784 5786 5788 5791 5795 5800 5802 5806 5809 5812 5815 5818 5821 5824 5827 5830 5833 5836 5839 5842 5845 5847 5850 5852 5854 5855 5857 5859 5860 5861 5862 5864 5864 5865 5865 5865 5865 5865 5865
5751 5751 5750 5751 5757 5764 5768 5770 5770 5772 5775 5777 5780 5783 5788 5792 5795 5798 5802 5805 5809 5812 5815 5818 5822 5825 5828 5831 5834 5837 5840 5843 5846 5848 5850 5852 5854 5856 5857 5858 5860 5861 5862 5862 5863 5863 5863 5862 5862
5739 5738 5738 5740 5747 5753 5757 5758 5759 5761 5764 5767 5770 5774 5780 5783 5786 5790 5794 5798 5802 5805 5809 5812 5816 5819 5822 5826 5829 5832 5835 5838 5841 5844 5846 5848 5850 5852 5854 5855 5856 5858 5859 5859 5860 5860 5860 5860 5860
5726 5724 5725 5729 5734 5740 5745 5745 5747 5750 5753 5757 5759 5764 5771 5774 5778 5782 5786 5790 5794 5798 5802 5806 5809 5813 5817 5820 5823 5827 5830 5833 5836 5839 5842 5844 5846 5848 5850 5852 5853 5854 5855 5856 5857 5857 5857 5857 5857
5711 5710 5711 5716 5721 5728 5732 5732 5735 5737 5741 5745 5748 5753 5760 5765 5768 5773 5777 5782 5787 5791 5795 5799 5803 5807 5811 5814 5818 5821 5825 5828 5831 5834 5837 5840 5842 5844 5846 5848 5849 5851 5852 5853 5853 5854 5854 5854 5853
5695 5695 5697 5705 5709 5713 5717 5719 5721 5724 5728 5732 5737 5743 5749 5754 5758 5763 5768 5774 5779 5783 5788 5792 5796 5800 5804 5808 5812 5815 5819 5823 5826 5829 5832 5835 5838 5840 5842 5844 5846 5847 5848 5849 5850 5850 5850 5850 5850
5680 5680 5687 5693 5694 5696 5700 5703 5707 5710 5715 5721 5726 5731 5737 5742 5748 5754 5760 5765 5771 5776 5780 5785 5789 5793 5798 5802 5805 5809 5813 5817 5821 5824 5827 5830 5833 5836 5838 5840 5841 5843 5844 5845 5846 5847 5847 5847 5847
5666 5668 5674 5676 5677 5680 5684 5688 5691 5696 5703 5709 5714 5719 5724 5731 5738 5744 5750 5756 5762 5767 5772 5777 5781 5786 5791 5795 5799 5803 5807 5811 5815 5818 5822 5825 5828 5831 5833 5835 5837 5839 5840 5841 5842 5843 5843 5843 5843
5652 5655 5657 5659 5661 5664 5667 5671 5676 5682 5691 5695 5700 5706 5712 5719 5727 5734 5740 5746 5752 5758 5763 5768 5773 5778 5783 5788 5792 5796 5801 5805 5809 5813 5816 5820 5823 5826 5828 5830 5832 5834 5836 5837 5838 5839 5839 5839 5839
5638 5641 5642 5643 5645 5648 5651 5655 5660 5669 5677 5681 5686 5693 5700 5708 5715 5722 5729 5736 5743 5749 5755 5760 5766 5771 5776 5781 5785 5790 5794 5799 5803 5807 5811 5814 5817 5820 5823 5825 5828 5830 5831 5833 5834 5834 5835 5835 5835
5625 5626 5627 5628 5630 5633 5635 5640 5645 5657 5662 5666 5672 5680 5688 5696 5704 5711 5719 5727 5734 5740 5746 5752 5757 5763 5768 5774 5778 5783 5788 5792 5796 5801 5804 5808 5811 5815 5818 5820 5823 5825 5826 5828 5829 5830 5831 5831 5831
5611 5611 5613 5616 5617 5619 5620 5624 5634 5645 5646 5652 5660 5668 5676 5684 5692 5700 5709 5717 5724 5731 5737 5744 5749 5755 5760 5766 5771 5776 5781 5785 5790 5794 5798 5802 5806 5809 5812 5815 5818 5820 5821 5823 5824 5825 5826 5826 5826
5598 5598 5600 5606 5605 5606 5607 5612 5626 5629 5632 5639 5647 5655 5664 5673 5681 5690 5698 5707 5714 5721 5728 5735 5741 5747 5752 5758 5763 5769 5774 5778 5783 5788 5792 5796 5800 5803 5807 5810 5812 5814 5816 5818 5819 5820 5821 5821 5821
5586 5586 5589 5593 5593 5593 5594 5601 5613 5615 5618 5626 5634 5643 5651 5661 5671 5679 5688 5696 5704 5712 5719 5726 5732 5738 5744 5750 5756 5761 5766 5771 5776 5781 5786 5790 5794 5798 5801 5804 5807 5809 5811 5813 5814 5815 5816 5816 5816
5577 5576 5577 5580 5582 5582 5583 5590 5599 5602 5607 5614 5622 5630 5640 5650 5660 5668 5676 5685 5693 5702 5709 5716 5723 5729 5735 5741 5747 5753 5759 5764 5770 5775 5779 5784 5788 5791 5795 5798 5801 5803 5805 5807 5808 5809 5810 5810 5810
5566 5565 5566 5570 5570 5570 5573 5578 5585 5590 5595 5603 5611 5619 5628 5639 5648 5656 5665 5674 5683 5691 5699 5707 5714 5721 5727 5734 5740 5746 5752 5758 5763 5768 5772 5777 5781 5785 5789 5792 5795 5797 5799 5801 5803 5804 5804 5805 5805
5556 5555 5557 5559 5560 5559 5561 5566 5574 5579 5585 5592 5600 5608 5617 5627 5636 5645 5654 5663 5672 5681 5690 5698 5705 5712 5719 5726 5732 5738 5744 5750 5755 5760 5765 5770 5774 5778 5782 5786 5789 5791 5793 5795 5797 5798 5798 5799 5799
5548 5547 5548 5548 5549 5549 5550 5555 5564 5570 5575 5582 5589 5597 5606 5615 5625 5634 5643 5652 5662 5671 5680 5688 5696 5704 5711 5717 5723 5729 5735 5741 5747 5753 5758 5763 5767 5771 5775 5779 5782 5785 5787 5789 5790 5791 5792 5793 5793
5539 5540 5538 5538 5538 5540 5543 5544 5555 5560 5565 5572 5579 5587 5595 5605 5614 5623 5632 5642 5652 5662 5670 5678 5687 5694 5702 5708 5715 5722 5728 5735 5741 5746 5751 5755 5760 5764 5768 5772 5775 5778 5780 5782 5784 5785 5786 5786 5787
5531 5531 5530 5530 5530 5531 5535 5535 5544 5550 5556 5563 5571 5578 5586 5594 5602 5611 5621 5631 5641 5651 5659 5668 5676 5684 5692 5700 5707 5714 5721 5727 5732 5738 5743 5748 5752 5757 5761 5765 5768 5771 5773 5775 5777 5778 5779 5780 5780
5523 5523 5522 5522 5521 5523 5529 5528 5534 5543 5549 5556 5562 5568 5576 5584 5592 5601 5610 5619 5629 5639 5648 5657 5666 5675 5683 5691 5698 5706 5713 5719 5724 5730 5735 5740 5745 5749 5754 5757 5761 5764 5766 5768 5770 5771 5772 5773 5773
5515 5515 5514 5513 5514 5516 5520 5520 5527 5536 5542 5546 5552 5559 5566 5574 5582 5591 5600 5609 5619 5628 5638 5648 5656 5665 5674 5682 5689 5697 5704 5710 5716 5722 5727 5732 5737 5742 5746 5750 5754 5757 5759 5761 5763 5764 5765 5766 5766
5509 5508 5508 5507 5507 5509 5511 5513 5522 5528 5533 5537 5543 5548 5555 5562 5571 5580 5589 5599 5608 5618 5628 5637 5647 5656 5664 5672 5681 5688 5695 5701 5708 5714 5719 5725 5730 5734 5738 5742 5746 5749 5751 5753 5755 5757 5758 5759 5759
5501 5501 5503 5501 5500 5500 5502 5508 5515 5520 5524 5529 5534 5539 5546 5553 5561 5570 5579 5588 5597 5607 5617 5627 5637 5646 5654 5663 5671 5679 5686 5693 5700 5706 5711 5716 5721 5726 5730 5734 5738 5741 5744 5746 5748 5750 5751 5751 5752
5495 5495 5495 5494 5492 5493 5496 5501 5507 5511 5516 5520 5525 5530 5536 5543 5551 5560 5568 5578 5587 5597 5607 5616 5625 5635 5644 5653 5661 5669 5677 5684 5691 5697 5703 5708 5713 5718 5722 5726 5730 5733 5736 5738 5741 5742 5743 5744 5744
5489 5489 5488 5488 5487 5487 5489 5497 5500 5504 5507 5511 5516 5520 5526 5532 5539 5548 5557 5566 5576 5586 5595 5605 5614 5624 5634 5643 5652 5660 5668 5675 5681 5688 5694 5699 5705 5709 5714 5718 5722 5725 5728 5730 5733 5735 5736 5736 5737
5482 5482 5482 5482 5481 5481 5482 5490 5493 5496 5499 5503 5507 5512 5517 5523 5529 5537 5546 5555 5564 5574 5584 5594 5603 5614 5624 5633 5642 5650 5658 5665 5672 5679 5685 5691 5696 5701 5705 5710 5713 5717 5720 5723 5725 5727 5728 5729 5729